Regional Weather Roundup
Issued by NWS

Home | Current Version | Previous Version | Graphics & Text | Print | Product List | Glossary Off
Versions: 1 2 3 4 5 6 7 8 9 10 11 12 13 14 15 16 17 18 19 20 21 22 23 24 25 26 27 28 29 30 31 32 33 34 35 36 37 38 39 40 41 42 43 44 45 46 47 48 49 50

000
ASUS43 KMKX 260521
RWRWI

WISCONSIN REGIONAL WEATHER ROUNDUP
NATIONAL WEATHER SERVICE MILWAUKEE/SULLIVAN WI
1200 AM CDT WED JUL 26 2017

NOTE: "FAIR" INDICATES FEW OR NO CLOUDS BELOW 12,000 FEET WITH NO
SIGNIFICANT WEATHER AND/OR OBSTRUCTIONS TO VISIBILITY.

WIZ001-002-006>008-014>016-023>028-260600-
NORTHWEST WISCONSIN

CITY           SKY/WX    TMP DP  RH WIND       PRES   REMARKS
SUPERIOR ARPT  NOT AVBL
ASHLAND        CLOUDY    72  66  81 SW9       29.95R
HAYWARD        LGT RAIN  70  67  90 SW8       29.99R
SIREN          LGT RAIN  72  69  92 CALM      30.00R
CUMBERLAND     CLOUDY    68  64  88 CALM      30.02R
RICE LAKE      CLOUDY    71  67  87 CALM      30.03R
CHETEK         CLOUDY    70  68  92 CALM      30.02R
LADYSMITH      CLOUDY    72  66  81 S6        30.03R
EAU CLAIRE     CLOUDY    72  67  84 S6        30.00R
MENOMONIE      CLOUDY    71  69  92 E5        30.00R
NEW RICHMOND   CLOUDY    75  69  84 NW6       30.02R
OSCEOLA        LGT RAIN  76  74  92 CALM      30.03R
$$

WIZ003>005-009-010-017-018-260600-
NORTH CENTRAL WISCONSIN

CITY           SKY/WX    TMP DP  RH WIND       PRES   REMARKS
MANITOWISH WTR CLOUDY    68  67  97 SW5       30.02R
ARBOR VITAE    CLOUDY    70  65  84 S8        30.01S
WOODRUFF       CLOUDY    70  65  84 S8        30.01S
RHINELANDER    CLOUDY    70  64  81 S9        30.03F
EAGLE RIVER    CLOUDY    67  60  76 S7        30.02F
LAND O LAKES   CLOUDY    68  61  78 S6        30.03F
PHILLIPS       CLOUDY    69  66  90 S8        30.01R
TOMAHAWK         N/A     66  62  89 CALM      30.03F
MEDFORD        CLOUDY    68  64  88 S8        30.03S
MERRILL        NOT AVBL
$$

WIZ029-030-035-036-043>047-260600-
CENTRAL WISCONSIN

CITY           SKY/WX    TMP DP  RH WIND       PRES   REMARKS
WAUSAU         CLOUDY    69  64  84 SE10      30.03R
MOSINEE        CLOUDY    68  64  88 S10       30.06R
MARSHFIELD     CLOUDY    68  64  87 S6        30.04R
STEVENS POINT  CLOUDY    67  64  88 S9        30.06R
WAUPACA        PTCLDY    70  63  78 SE5       30.06F
WAUTOMA        MOCLDY    68  64  87 S8        30.06F
WISC RAPIDS    MOCLDY    70  64  81 S6        30.06R
CAMP DOUGLAS   MOCLDY    70  66  88 S8        30.02F
$$

WIZ011>013-019>022-031-037>040-048>050-260600-
NORTHEAST WISCONSIN

CITY           SKY/WX    TMP DP  RH WIND       PRES   REMARKS
ANTIGO         CLOUDY    64  63  96 S9        30.07S
SHAWANO        CLOUDY    69  63  81 S3        30.05F
OCONTO         CLOUDY    68  61  79 S7        30.05S
STURGEON BAY     N/A     67  60  78 S12       30.07R
GREEN BAY      MOCLDY    68  62  81 S12       30.06F
MANITOWOC      CLOUDY    69  62  78 S12       30.10F
APPLETON       CLOUDY    68  59  73 S10       30.05F
CLINTONVILLE   PTCLDY   N/A N/A N/A S7        30.05F
OSHKOSH        MOCLDY    65  61  87 S5        30.07F
$$

WIZ032>034-041-042-053>061-260600-
SOUTHWEST WISCONSIN

CITY           SKY/WX    TMP DP  RH WIND       PRES   REMARKS
LA CROSSE      CLOUDY    77  69  76 S16       29.99R
SPARTA         MOCLDY    72  66  83 SW3       30.04R
VIROQUA        CLOUDY    71  69  93 S9        30.07R
BOSCOBEL       CLOUDY    74  67  78 SW6       30.04F
PRAIRIE DU CHI CLOUDY    74  65  75 E3        30.03S
PLATTEVILLE    CLOUDY    70  69  98 S8        30.08S
$$

WIZ056-057-062-063-064-067-068-260600-
SOUTH CENTRAL WISCONSIN

CITY           SKY/WX    TMP DP  RH WIND       PRES   REMARKS
REEDSBURG      CLOUDY    70  68  93 S5        30.06R
BARABOO/DELLS  CLOUDY    69  63  80 S6        30.07R
LONE ROCK      CLOUDY    72  67  84 S7        30.06S
MINERAL POINT  CLOUDY    70  68  94 S7        30.09R
MADISON        CLOUDY    71  61  70 S10       30.07F
MIDDLETON        N/A     70  62  76 SW7       30.08R
WATERTOWN      PTCLDY    65  64  95 SE5       30.07F
MONROE         CLOUDY    68  61  77 S8        30.10R
JANESVILLE     PTCLDY    70  59  68 S8        30.08F
$$

WIZ051-052-058>065-066-070>072-260600-
SOUTHEAST WISCONSIN

CITY           SKY/WX    TMP DP  RH WIND       PRES   REMARKS
MILWAUKEE      MOCLDY    70  62  76 S7        30.11F
WAUKESHA       CLOUDY    64  55  72 SE6       30.11F
MILWAUKEE/TIMM PTCLDY    68  55  64 S7        30.11F
RACINE         CLEAR     71  62  73 S7        30.12F
KENOSHA        CLEAR     68  61  78 S8        30.11F
FOND DU LAC    CLOUDY    67  60  78 CALM      30.09R
SHEBOYGAN      CLOUDY    68  62  81 S8        30.10F
WEST BEND      CLOUDY    66  55  68 SE5       30.09F
JUNEAU         MOCLDY    66  61  83 SE6       30.09S
$$

LSZ147-162-260600-
LAKE SUPERIOR

STATION/POSITION TIME  TEMP    WIND        PRES    WAVE
                       AIR SEA DIR/SP/G            HT/PER
                 (UTC) (F)     (DEG/KT/KT) (MB)    (FT/S)
W MID LAKE BUOY  0450   58 52  220/  8/  8 1012.4F   1
DEVILS ISLAND    0500   67     210/  8/ 10 1012.6F
PORT WING        0240   64      20/  2/  3 1013.5
SAXON HARBOR     0440   74     200/  7/ 11 1012.5S
$$

LMZ867-665-643>646-260600-
LAKE MICHIGAN

STATION/POSITION TIME  TEMP    WIND        PRES    WAVE
                       AIR SEA DIR/SP/G            HT/PER
                 (UTC) (F)     (DEG/KT/KT) (MB)    (FT/S)
CHAMBERS ISLAND  0440   69     160/  4/  7 1017.6R
S GREEN BAY BUOY 0430   70 72  180/ 19/ 23 1017.2F
N MID LAKE BUOY  0450   69 66  190/ 17/ 19 1017.8F   3/ 5
NORTHPORT PIER   0440   67     180/  4/ 10 1018.3R
KEWAUNEE LAKESHO 0500   69     200/ 11/ 16 1017.8
SHEBOYGAN LAKESH 0500   69     170/ 15/ 16 1018.6F
PORT WASHINGTON  0430   70     190/  5/  9 1020.0F
ATWATER BUOY     0409   70 68  160/ 10/ 12 1019.8R
MILWAUKEE LAKESH 0500   70     190/  6/  8   N/A
S MID LAKE BUOY  0450   73 71  180/  8/ 12 1020.7R   1
KENOSHA   LAKESH 0500   70     170/  9/ 10 1019.0
$$

TC  - TEMPERATURE IN CELSIUS
VSB - VISIBILITY IN STATUTE MILES
WCI - WIND CHILL INDEX
HX  - HEAT INDEX




USA.gov is the U.S. government's official web portal to all federal, state and local government web resources and services.